COSMOS 1275 DEB, 12952

Orbit data source: Space-Track

COSMOS 1275 DEB, 12952 is space debris in LEO originally from a launch on Thu, 04 Jun 1981 UTC launched from the Plesetsk Missile And Space Complex (PKMTR). Debris objects in space refer to the collection of defunct objects orbiting the Earth. Examples of debris include non-operational satellites, rocket bodies, and fragments generated from explosions, collisions, or faulty payload assembly.

Loading next visibility...
Identifier
12952, 1981-053EG
Orbit
LEO
Country
Flag of CISCIS
Related business
Manufacturer
Unknown
Mission
Spacecraft
Bus & Motor
Unknown
Mass
Unknown
Launch date (UTC)
1981-06-04 (45 years ago)
Launch vehicle
Unknown
Launch site
Plesetsk Missile And Space Complex (PKMTR)
Object type
Payload
Rocket body
Debris
Shape & HBR
Unknown shape, 0.1 m
Radar Cross Section
Small (<0.1 m²)

Expand to show TLE details & history
Last TLE update: 11 hours ago

TLE from 11 hours ago
0 COSMOS 1275 DEB
1 12952U 81053EG  26035.53305615  .00000832  00000-0  56476-3 0  9994
2 12952  82.9571  75.3578 0010548 156.2366 326.0762 13.99026279244278
Epoch: 2026-02-04T12:47Z
TLE epoch observation values (Epoch: 2026-02-04T12:47:36.051Z)
Latitude
57.17306°
Longitude
-82.22272°
Altitude
900.401 km
Speed
7.411 km/s
True Right ascension
16h 17m 30s
True Declination
57° 01' 09"
Sunlit
Object was in daylight at epoch
Visualization orbit readout
Latitude
Unknown
Longitude
Unknown
Altitude
Unknown
Speed
Unknown
Apparent Right ascension
Unknown
Apparent Declination
Unknown
Sunlit
N/A
Visualization observer readout
Local Sidereal Time
01:39:03
Azimuth
Unknown
Elevation
Unknown
Doppler factor
Unknown
Orbital elements
Apogee altitude
901.955 km
Perigee altitude
886.613 km
Semi-major axis
7,272.421 km
Eccentricity
0.00105
Inclination
82.9571°
RAAN
75.3578°
Arg. of periapsis
156.2366°
True anomaly
326.00867°
Mean anomaly
326.0762°
Eccentric anomaly
326.04244°
Mean motion
3.49965 °/min
Orbital period
102.87 mins
BSTAR
0.00056476
Loading maneuver chart data...
Computing Atmospheric mass density...

Documentation

Showing up to 5 results
|